Wind_Speed
18 18 17 16 15 14 14 13 12 12 11 10 10 10 10 10 10 10 10 10 10 9 9 9 9 8 6 4 4 4 5 5 4 4 4 4 3 3 4 4 4 3 3 3 2 2 2 1 0 1 1 2 4 5 7 6 5 4 3 4 2 3 4 6 8 7 4 1 6 10 12 9 3 7 8 5 7 8 8 12 13 13 14 13 11 9 7 9
19 18 17 16 15 14 14 13 13 12 11 10 10 10 10 10 11 11 10 10 10 9 9 9 9 8 6 4 4 4 5 5 5 5 5 5 4 4 4 4 4 3 2 2 3 3 2 1 0 1 1 3 4 4 5 4 4 3 3 3 3 5 5 6 10 10 4 2 7 11 11 10 5 9 10 4 5 7 7 10 14 15 15 16 15 13 11 10
19 19 17 16 15 14 14 13 13 12 11 11 10 10 10 11 11 11 11 10 10 9 9 9 9 7 5 4 4 3 4 4 4 5 4 4 3 4 4 4 3 3 2 1 2 3 2 1 1 2 3 5 4 4 4 4 3 2 4 2 4 7 3 5 11 11 5 2 7 11 10 9 6 9 11 5 4 5 8 12 14 17 18 17 16 15 14 12
19 19 18 16 15 14 14 13 13 12 12 11 10 10 11 11 11 11 11 10 10 10 10 10 8 7 5 4 3 3 2 2 2 2 2 2 3 4 3 4 4 3 2 2 2 2 2 1 3 4 5 5 4 4 3 5 2 1 4 3 4 5 2 3 10 8 6 2 4 10 8 6 7 9 10 7 3 4 13 18 17 18 17 15 16 16 15 15
20 19 18 17 16 15 15 14 14 13 12 11 10 10 11 11 11 11 11 10 10 10 10 10 8 7 5 4 3 3 0 2 1 1 0 2 5 6 7 7 6 4 3 3 2 2 2 3 4 4 5 3 3 4 3 5 4 3 2 2 3 5 2 2 6 5 7 5 5 9 8 6 7 8 11 10 6 8 13 15 15 16 16 14 15 15 15 16
21 20 19 18 17 16 16 15 14 13 12 11 10 10 11 11 11 11 10 10 10 10 10 9 8 6 5 4 3 3 2 2 2 4 4 7 10 11 10 9 6 5 3 3 3 3 3 3 5 4 4 3 3 3 3 3 3 2 1 1 5 4 2 2 2 3 6 6 6 9 7 7 8 6 9 14 16 18 15 12 11 10 11 13 15 15 16 16
21 21 19 18 17 17 16 15 14 13 12 11 11 11 11 11 11 11 10 10 10 10 10 9 8 6 5 4 3 3 2 1 3 5 7 10 12 11 10 7 6 5 3 3 3 3 4 4 5 5 5 4 2 3 4 4 2 3 1 2 5 1 3 1 0 2 5 5 6 7 7 7 8 6 6 16 24 21 19 18 16 14 12 12 14 16 16 16
20 20 19 18 17 16 15 14 13 12 12 12 12 12 11 11 11 11 10 10 10 10 9 8 7 6 4 4 3 3 3 2 4 6 8 11 11 9 7 4 4 3 2 2 3 4 4 4 5 5 4 3 3 2 3 4 4 4 2 2 4 1 2 1 1 3 4 4 5 6 6 5 6 5 7 20 25 18 19 20 20 20 19 17 17 17 17 17
18 18 17 17 16 15 14 13 12 12 12 12 12 12 12 11 11 11 10 10 10 10 9 8 7 6 4 4 3 2 3 4 5 7 10 11 10 7 4 1 1 1 1 1 3 3 3 4 4 3 3 4 5 3 4 2 2 3 4 3 3 1 2 1 3 4 5 4 4 5 5 3 4 4 10 23 23 19 20 21 21 22 22 21 19 19 18 18
16 16 15 15 15 14 13 13 12 12 12 12 12 12 12 12 11 11 11 11 10 10 9 8 6 6 5 4 3 2 3 5 6 9 10 11 9 6 2 1 2 1 0 1 2 3 4 4 4 5 5 6 6 4 5 3 2 3 4 4 3 1 2 1 4 4 5 5 4 6 4 2 3 1 8 16 12 12 16 18 21 22 23 22 19 18 17 18
14 13 13 13 13 13 13 13 13 13 12 12 11 11 12 12 11 11 11 11 11 10 9 8 6 6 5 4 5 3 2 4 7 10 10 10 9 6 3 2 1 1 1 1 2 3 4 4 5 5 4 4 5 4 5 5 4 3 3 2 1 4 4 3 4 4 4 4 5 5 3 2 2 3 13 18 13 14 14 15 18 19 21 21 19 18 17 18
12 11 11 11 11 11 11 11 11 11 11 11 11 11 11 12 11 11 11 11 10 9 8 7 6 6 5 6 7 5 2 2 7 11 11 10 10 6 4 3 2 2 1 2 3 4 4 4 4 3 3 6 5 4 5 5 5 5 5 1 5 8 4 3 2 4 4 3 3 1 3 4 4 10 21 19 16 17 17 18 19 19 20 20 20 19 19 19
11 11 10 10 10 10 9 9 9 9 10 10 10 11 11 11 11 10 10 10 10 9 8 7 6 6 5 5 6 7 6 4 6 11 12 11 10 8 5 5 3 1 2 2 4 4 4 3 3 4 7 7 4 4 6 5 4 3 5 1 3 7 4 3 2 2 4 3 4 4 3 6 6 17 21 15 15 16 16 20 21 20 20 20 20 21 21 20
10 11 10 10 9 9 9 8 8 8 8 9 9 10 10 10 10 10 9 9 9 8 7 6 6 6 5 5 5 6 8 7 8 11 13 12 11 9 7 6 3 1 2 2 2 3 4 4 4 6 7 6 7 9 5 5 4 1 2 2 2 2 4 5 1 4 4 4 7 6 4 7 7 14 14 13 15 15 18 21 20 20 20 21 21 21 23 22
11 10 10 10 10 9 9 8 8 8 8 8 8 8 8 8 8 8 9 8 8 7 7 6 6 5 4 5 6 7 9 10 11 12 13 13 13 10 8 7 4 2 3 2 2 3 4 4 4 6 7 8 9 7 3 4 4 3 1 2 3 1 5 8 2 6 3 2 7 7 4 7 8 12 10 11 13 14 19 21 19 21 21 21 22 22 23 23
10 10 10 10 10 10 9 8 8 8 8 8 8 8 8 8 7 7 8 8 8 7 7 6 6 5 3 4 6 7 9 12 13 14 14 14 14 12 9 8 6 3 3 3 2 3 3 3 5 7 6 6 6 4 4 3 3 4 1 3 1 2 3 6 2 4 2 2 5 4 3 5 5 6 3 3 8 12 18 20 19 21 22 22 22 23 24 24
10 10 10 10 10 10 9 8 8 7 7 7 7 7 7 7 7 7 7 7 7 7 6 5 5 5 4 6 7 9 12 14 14 15 16 15 14 12 11 9 6 5 4 3 3 2 2 3 5 4 3 3 3 4 4 2 4 3 2 1 3 2 2 3 4 1 1 2 3 3 3 8 9 7 7 5 6 10 16 21 21 20 22 22 23 24 25 25
10 10 10 10 10 10 9 9 8 7 7 7 7 6 6 6 6 7 7 8 7 6 5 6 5 1 6 11 10 9 11 13 14 14 15 16 15 13 12 9 6 5 4 3 2 2 2 4 4 2 3 3 2 5 3 4 4 3 2 1 3 2 2 3 4 2 2 2 2 3 5 12 13 15 21 20 14 15 21 25 26 25 25 24 25 27 27 28
10 10 10 10 10 10 10 10 9 8 7 7 6 6 6 5 5 6 8 10 10 6 3 9 12 4 2 10 13 11 8 8 12 13 15 16 15 14 12 9 6 5 5 4 1 3 4 4 5 2 1 2 4 6 7 7 6 6 6 4 4 3 3 5 5 4 2 1 4 7 8 11 12 14 20 23 19 19 26 29 30 31 30 30 31 32 32 33
9 9 10 10 10 10 10 10 10 9 8 7 7 7 6 7 5 3 9 13 15 13 6 9 15 9 3 3 8 11 9 8 11 13 16 16 16 14 11 8 6 3 3 3 2 2 4 3 2 5 7 8 8 8 6 5 7 6 6 4 4 4 4 5 4 4 1 3 6 9 8 10 12 11 18 23 16 16 24 28 31 34 34 35 35 37 37 36
8 8 9 9 10 10 10 11 10 10 9 8 9 8 7 8 5 2 8 11 15 18 13 9 12 13 9 4 4 7 8 9 10 14 15 16 16 12 9 7 5 2 0 3 4 3 4 4 7 10 7 5 6 6 6 5 5 5 5 3 2 3 5 6 3 4 0 3 5 6 7 11 12 11 19 22 12 15 26 28 32 36 35 36 37 39 40 37
8 8 7 8 9 9 11 11 11 11 10 10 11 9 8 9 7 5 5 4 9 14 17 17 15 15 15 12 8 7 8 7 8 14 15 17 17 12 10 7 5 3 1 4 6 3 3 3 11 9 5 7 4 5 6 5 4 4 3 2 3 3 4 5 3 4 1 3 5 5 7 11 11 10 17 23 19 23 31 32 35 37 32 35 38 39 38 36
8 8 7 8 8 9 10 11 11 12 12 11 11 11 9 8 8 7 4 3 6 10 15 19 20 21 20 17 15 12 11 7 7 14 17 18 18 13 12 9 4 4 3 3 6 4 2 6 10 6 9 8 5 5 7 5 2 2 3 3 3 2 2 3 4 4 0 2 3 5 7 9 9 8 13 24 26 26 33 35 37 38 36 40 41 37 35 34
9 9 8 8 8 10 9 10 12 12 12 13 12 12 11 9 7 5 3 2 5 7 11 16 18 22 24 20 18 16 14 11 9 13 19 21 18 12 11 9 6 5 4 6 7 5 5 5 2 4 8 7 6 4 6 4 3 4 5 6 4 4 5 5 3 4 2 2 3 4 7 7 6 7 9 13 13 18 28 31 33 37 39 42 42 38 37 37
12 10 9 9 9 10 10 10 10 11 13 14 14 14 12 10 6 2 1 1 4 5 7 12 14 18 22 20 18 15 11 12 13 14 18 24 21 12 7 7 6 4 6 6 5 4 7 4 4 6 4 6 7 4 5 7 3 4 5 9 9 7 7 5 3 5 4 3 3 4 5 6 2 4 8 5 4 9 16 16 22 33 34 33 34 35 35 35
14 13 12 11 10 11 12 9 8 10 13 14 15 15 13 10 7 4 3 4 4 4 3 8 9 10 15 18 19 15 5 9 15 16 19 23 23 13 7 5 3 3 6 6 3 3 4 2 4 6 5 6 6 3 6 7 4 2 4 7 9 6 5 5 1 1 1 4 3 4 2 7 4 4 8 6 5 10 10 9 19 31 30 27 29 30 30 29
17 16 15 14 14 15 13 9 9 11 10 12 15 16 14 12 10 7 4 4 5 5 7 8 8 9 11 14 23 17 2 5 12 16 21 23 21 14 7 5 3 2 6 6 1 3 4 3 4 5 6 5 5 3 6 8 7 3 4 4 6 6 6 5 4 3 3 3 3 3 2 5 8 6 6 5 6 10 11 12 19 25 25 24 25 26 24 24
21 19 17 17 18 17 13 11 11 8 7 10 15 17 15 14 13 8 5 1 3 5 6 6 8 10 11 17 25 15 6 10 9 12 24 24 20 12 6 8 7 5 7 7 4 3 3 6 5 7 5 4 5 4 6 11 5 4 3 5 6 6 5 4 5 2 2 3 4 2 3 3 8 5 3 2 5 8 11 14 16 18 20 19 18 17 16 15
23 22 21 20 20 18 16 15 12 7 7 9 16 19 18 18 13 7 4 2 2 4 3 6 8 8 13 18 18 9 8 7 3 11 23 21 18 9 3 9 9 6 5 4 4 2 1 4 7 8 5 5 4 2 5 9 4 4 6 6 6 5 5 5 4 3 3 2 5 5 6 4 7 4 2 1 3 6 10 12 12 16 19 16 13 12 11 11
25 25 23 23 25 24 21 19 14 10 10 13 19 24 24 19 10 5 2 3 2 2 3 7 6 8 16 14 5 1 4 2 5 14 15 12 14 7 5 8 6 6 1 3 1 2 1 2 3 4 4 5 6 4 1 3 6 9 7 6 6 5 4 3 2 4 2 5 5 6 9 6 5 3 4 3 4 6 8 8 9 13 16 14 11 11 10 9
28 27 24 25 29 28 25 22 18 15 15 19 24 29 24 11 4 4 5 2 1 2 4 4 3 8 14 10 3 3 2 3 6 14 9 5 7 5 6 6 3 4 2 4 3 3 2 2 2 3 5 7 8 5 5 5 6 7 4 4 4 3 4 4 4 3 0 5 3 2 4 5 7 6 3 4 6 6 7 7 8 9 12 12 9 9 9 8
28 26 24 27 30 29 28 25 19 17 18 23 31 30 17 4 1 4 5 2 1 4 5 3 2 6 9 5 4 6 4 2 5 8 5 4 5 6 5 5 5 3 2 6 3 3 2 4 2 2 5 8 7 5 4 4 1 3 4 6 4 2 2 3 3 1 2 6 3 1 1 4 9 8 7 9 12 10 10 12 14 14 17 18 13 11 12 12
29 26 24 28 31 31 32 28 20 18 19 28 33 21 7 3 6 9 8 3 2 3 3 3 3 6 9 6 4 5 3 2 6 5 3 4 5 6 5 4 6 3 2 5 3 1 3 4 1 3 3 9 9 6 3 1 3 5 5 6 4 2 1 2 3 2 4 6 3 1 0 3 5 5 10 16 17 16 15 20 24 23 25 28 24 20 20 20
27 25 23 26 31 32 32 30 25 21 23 32 27 10 4 6 7 9 11 5 0 2 3 4 5 5 6 4 3 5 3 2 5 5 3 5 5 6 5 6 6 2 3 4 3 6 5 5 5 6 3 11 13 7 6 5 5 6 3 5 5 5 5 4 4 4 5 4 3 2 1 3 3 3 8 12 14 16 19 24 27 27 30 33 33 31 28 26
20 21 21 24 31 35 33 33 29 24 30 33 17 3 7 8 6 8 9 4 2 2 3 4 7 6 3 2 2 4 3 2 4 4 3 5 5 7 7 8 10 6 5 4 2 3 3 6 6 2 1 11 11 4 6 7 3 3 3 4 3 5 5 2 3 5 2 3 3 2 4 5 4 6 9 10 11 13 17 19 19 25 30 30 32 32 29 27
16 17 19 21 31 38 37 36 32 28 35 30 10 4 9 8 5 5 5 5 5 5 6 3 4 4 4 2 2 4 1 1 5 4 3 4 3 6 6 6 11 11 8 7 2 2 2 4 5 3 1 5 4 2 4 4 3 2 3 4 4 4 6 3 2 1 3 3 4 2 5 5 4 8 9 8 11 12 11 11 15 22 23 21 26 30 29 28
15 16 20 22 28 34 37 39 35 34 38 25 8 8 9 7 6 3 2 5 8 11 9 4 3 5 6 3 4 7 2 1 5 4 3 2 3 6 7 5 9 15 14 9 3 3 4 3 4 2 1 3 1 3 4 3 4 5 4 6 3 2 3 3 2 2 3 3 4 1 5 6 4 6 4 1 6 11 10 10 15 20 19 19 27 29 26 24
15 15 21 26 27 29 35 40 38 39 35 16 7 9 5 6 8 5 4 5 8 10 7 6 6 5 7 6 5 7 6 3 5 5 4 3 5 8 10 5 9 19 22 13 3 3 4 2 4 2 2 3 3 3 2 4 3 4 4 5 4 2 2 2 2 2 1 3 4 3 4 5 6 7 4 3 6 9 10 9 9 13 16 20 23 20 15 15
14 13 16 24 26 27 31 37 40 40 25 8 8 8 4 8 9 4 7 5 5 7 7 7 6 3 5 8 5 6 8 7 8 7 5 5 5 7 13 11 8 15 22 17 6 2 3 3 3 1 2 1 3 2 5 1 2 3 2 3 2 2 4 3 3 3 3 2 3 3 5 7 8 7 6 9 11 10 8 6 6 11 15 15 12 11 9 9
14 11 10 16 21 23 28 33 36 30 12 5 9 6 3 7 9 8 9 4 1 2 5 5 6 5 5 7 4 5 7 7 9 8 5 7 6 4 10 12 5 6 16 17 9 1 3 3 3 2 3 0 3 5 8 9 6 3 3 5 3 1 2 1 1 2 3 3 2 2 6 12 8 5 8 11 12 10 9 8 8 12 14 10 8 8 7 5
14 9 6 9 13 20 29 28 22 14 4 3 6 5 5 4 3 11 17 11 2 2 2 1 4 6 6 6 4 4 6 5 7 7 4 6 7 5 9 15 12 9 9 9 8 5 3 3 3 2 1 4 6 4 5 8 8 7 7 8 8 6 4 2 2 1 2 3 3 3 7 14 7 5 7 8 8 9 12 11 10 14 16 10 7 8 7 6
12 7 7 9 10 20 29 18 8 8 5 5 8 6 5 3 1 8 15 15 10 4 3 2 3 3 4 6 5 4 6 5 6 7 4 8 11 7 10 20 23 22 15 7 8 9 5 3 3 3 4 5 5 2 1 3 3 3 2 3 5 4 4 5 4 4 2 2 1 4 4 13 5 7 7 7 7 9 12 12 11 16 18 12 9 10 9 8
10 8 10 11 12 24 25 8 4 8 4 7 12 7 5 5 4 6 8 11 10 4 2 2 2 4 4 3 5 6 7 6 7 9 6 7 10 8 10 19 22 20 13 3 3 6 4 2 3 3 2 2 3 2 2 2 2 2 1 2 5 6 7 5 3 4 4 3 3 3 5 13 5 3 5 5 5 7 10 14 17 18 16 13 12 12 11 11
8 9 11 15 20 26 19 5 4 7 6 8 9 7 9 7 4 6 7 9 9 5 4 5 4 5 5 2 5 7 8 7 7 10 9 5 5 5 11 22 21 13 9 6 6 10 8 3 5 3 2 2 2 2 1 1 1 3 3 4 6 9 7 3 1 2 2 8 10 6 8 13 4 1 4 4 4 7 9 14 18 18 16 15 14 12 13 13
6 7 10 19 32 33 22 13 10 6 8 11 8 8 11 6 7 15 12 8 10 7 4 7 8 5 2 1 3 4 8 8 6 7 8 5 3 1 10 24 24 15 12 8 10 14 9 4 7 7 6 8 7 6 5 3 3 2 3 6 8 11 12 7 4 3 5 11 11 7 12 15 3 2 4 5 3 6 10 13 15 17 18 18 15 13 14 13
4 4 5 13 29 32 22 20 18 8 7 11 8 8 12 9 8 16 15 9 12 13 7 6 7 4 1 2 3 4 8 10 7 4 4 5 3 0 7 20 24 23 17 8 10 12 4 2 9 12 12 13 13 11 5 7 7 6 10 13 13 14 14 10 5 6 11 12 8 12 20 21 13 8 6 5 6 7 9 10 14 20 23 22 18 14 13 12
5 3 3 5 14 18 14 13 14 8 7 10 6 5 13 13 7 9 13 11 13 16 11 6 6 6 5 8 9 8 9 9 7 5 5 5 3 2 3 10 17 23 19 11 13 12 2 3 10 13 16 16 17 16 9 10 11 14 16 17 16 16 16 13 12 16 16 11 11 18 19 18 22 20 13 9 9 8 7 11 18 23 25 22 19 18 17 15
8 5 4 4 4 6 8 9 10 9 9 10 6 4 10 14 10 8 11 11 14 17 11 6 9 11 11 14 12 9 9 7 7 8 8 5 2 0 2 3 9 16 13 8 12 10 3 6 10 11 16 18 19 17 12 12 13 14 16 18 18 18 18 18 21 25 21 13 14 19 18 17 22 26 20 13 10 11 15 19 21 21 21 20 20 23 22 19
11 8 7 6 3 3 4 4 5 8 9 8 6 6 9 13 15 12 9 7 9 13 12 9 11 14 15 15 12 10 10 8 7 9 9 8 6 4 3 3 5 10 9 6 6 6 4 7 11 13 16 18 20 20 14 14 13 10 12 15 17 20 22 25 27 28 24 17 16 21 24 22 22 24 20 14 18 23 23 21 18 18 22 25 25 27 25 21
13 10 8 6 5 7 8 6 1 3 6 6 5 5 6 9 13 12 10 10 8 9 14 16 16 16 15 15 14 13 13 12 11 11 10 9 8 6 6 6 4 6 8 5 3 4 6 7 9 10 10 13 17 19 17 14 13 12 10 10 13 20 24 27 26 21 18 18 22 25 25 24 21 17 12 12 23 25 18 15 18 23 27 29 28 29 27 24
19 14 9 3 1 4 7 5 3 2 3 4 5 4 4 8 11 7 7 14 15 10 12 17 18 14 13 16 16 15 17 16 16 17 15 13 13 10 7 6 6 5 5 6 3 3 6 5 3 3 6 10 12 17 18 13 8 9 10 10 17 21 21 20 18 17 19 21 23 21 19 21 17 7 6 11 18 17 14 18 24 29 33 34 32 32 31 30
26 21 15 7 2 3 4 2 3 4 4 4 6 8 7 7 9 7 5 10 16 18 17 19 19 14 11 15 19 24 29 28 25 24 19 14 16 15 12 11 10 9 6 6 3 3 5 5 4 5 7 10 13 16 16 9 5 7 11 19 25 22 16 13 14 21 24 20 17 15 16 23 18 5 7 9 10 12 16 24 29 34 38 39 39 38 36 35
Wind_Direction
199 197 198 199 200 201 201 203 203 204 207 208 211 210 207 203 198 197 196 196 197 199 201 201 200 202 210 222 229 237 240 242 251 260 270 273 276 258 229 222 239 257 245 231 222 214 198 166 15 78 120 90 88 96 101 103 111 115 96 99 156 177 196 188 178 187 165 194 196 181 182 174 176 187 181 192 211 224 227 223 221 221 225 226 230 234 237 223
200 199 201 203 204 206 205 205 206 208 210 213 216 212 208 202 197 196 195 196 197 199 203 200 199 205 217 228 238 243 243 253 263 271 279 276 264 233 221 234 242 231 214 217 205 199 176 160 6 108 152 111 85 97 109 86 89 93 98 118 201 194 202 193 179 183 153 76 174 174 182 185 186 184 182 194 219 219 231 233 228 230 233 232 237 239 243 235
202 201 204 207 208 209 210 210 209 211 213 215 218 214 208 201 197 196 195 196 196 200 201 198 200 208 223 234 244 245 248 266 273 280 282 270 239 213 223 229 202 179 186 193 192 195 191 177 110 137 134 113 85 101 106 61 75 83 101 132 236 207 209 200 184 184 174 88 155 170 183 189 188 183 184 199 217 213 228 233 228 232 238 237 239 241 243 239
204 205 207 210 212 213 214 214 214 215 216 218 219 213 207 201 199 197 197 197 197 199 197 195 200 211 228 237 241 238 266 294 271 286 285 241 205 196 191 167 144 131 129 115 149 167 179 152 127 135 120 106 73 95 76 34 79 107 109 165 227 187 154 187 188 198 210 194 161 172 173 189 195 187 191 190 185 239 239 239 239 246 251 246 244 247 247 244
204 207 210 212 213 214 215 215 217 218 219 222 220 213 206 202 200 199 199 199 198 195 194 195 202 216 228 233 237 215 120 25 147 93 86 156 149 149 135 125 118 112 114 100 103 118 137 142 136 126 105 91 50 75 42 34 94 97 74 213 169 145 102 146 183 207 212 198 171 167 164 192 195 197 207 194 195 238 244 249 253 258 263 255 248 249 248 246
205 208 210 213 214 214 214 215 217 219 221 223 219 212 206 204 202 202 202 201 197 194 194 196 203 215 222 227 232 203 157 75 131 118 118 131 127 129 123 111 100 97 102 91 94 108 119 132 135 120 92 71 45 70 54 35 105 109 2 213 152 132 66 92 169 190 192 190 178 171 181 196 188 211 227 217 229 241 248 256 256 259 261 251 246 245 245 244
208 210 210 213 214 214 214 215 218 220 222 220 214 208 206 205 204 203 203 201 198 194 194 198 206 215 219 226 220 209 209 138 142 137 134 137 133 131 121 104 93 87 91 96 97 114 116 118 124 115 94 79 86 89 54 42 78 103 93 171 167 144 8 40 150 169 173 190 188 177 190 198 197 216 245 241 243 247 254 257 256 257 255 250 246 246 249 247
209 211 211 212 213 214 215 218 220 221 220 215 209 206 205 206 205 205 203 201 198 195 196 200 206 213 218 227 222 221 222 187 173 164 151 150 147 139 125 104 86 70 85 91 78 104 108 107 122 117 95 88 125 112 52 61 51 60 124 179 172 187 336 272 203 181 170 178 182 189 204 209 218 233 258 256 256 256 257 259 259 259 256 252 249 248 251 249
209 209 208 210 211 213 216 220 220 218 217 212 208 205 205 206 205 204 202 200 198 197 200 202 209 216 220 230 232 229 213 196 186 175 164 163 164 154 138 104 25 20 55 76 67 95 102 106 121 121 129 127 119 84 56 92 19 43 130 148 149 130 7 216 199 186 186 192 185 210 231 230 236 266 267 262 265 264 258 259 260 261 259 256 251 248 246 246
205 206 207 209 209 210 212 213 213 213 211 210 210 207 206 206 205 203 200 199 198 199 203 206 212 216 225 234 221 203 204 196 184 181 177 175 179 177 179 283 290 306 330 93 69 82 98 103 110 116 125 125 111 71 47 79 114 87 104 117 118 69 352 259 205 195 203 222 223 227 252 261 218 219 260 260 266 263 257 257 258 259 260 259 254 247 243 242
200 203 205 207 207 207 207 207 206 207 207 208 208 207 207 206 204 201 198 198 198 200 205 210 216 219 230 232 209 186 186 197 188 187 184 185 189 192 218 250 230 140 153 138 111 94 100 105 117 124 118 125 116 71 66 89 102 79 74 132 10 343 313 272 230 218 213 233 242 236 275 270 154 181 247 253 259 263 262 259 258 257 257 258 255 249 244 241
193 197 198 203 205 205 205 205 205 204 204 204 204 205 206 206 204 201 198 198 199 202 208 212 218 222 230 240 234 217 195 183 187 189 190 192 195 201 223 208 154 129 142 133 128 110 112 119 120 125 120 139 137 76 93 99 91 68 63 170 312 351 333 285 272 225 205 224 229 160 299 263 183 228 246 254 258 260 261 258 256 254 254 254 253 251 246 242
183 184 186 194 198 199 199 199 201 202 200 202 203 203 205 206 204 201 200 200 201 204 210 215 221 227 233 245 247 230 222 217 192 193 194 198 201 208 217 194 167 152 162 145 130 110 116 125 108 125 127 134 139 120 120 91 87 77 53 72 317 358 336 302 10 204 187 201 175 133 275 261 228 242 247 254 254 253 255 255 254 252 252 252 252 253 250 245
178 180 182 185 189 192 192 191 191 192 194 198 201 203 206 206 203 203 202 202 204 207 212 217 221 228 233 238 244 232 224 217 203 201 201 204 205 209 212 203 202 197 182 167 128 106 99 100 103 122 118 119 129 126 105 41 56 64 19 27 20 10 281 297 24 154 164 203 177 146 255 263 261 260 255 255 253 250 253 255 254 252 251 251 252 253 253 251
182 184 187 189 191 194 195 195 192 188 190 193 196 200 203 205 205 203 202 204 205 208 212 215 219 222 236 244 240 237 229 219 212 208 207 209 211 212 213 211 219 223 203 189 149 117 97 101 112 107 100 114 125 115 46 8 29 34 350 308 359 160 267 307 276 170 160 196 173 158 249 270 277 276 273 262 250 243 251 258 257 253 252 250 251 252 255 255
191 190 194 196 197 200 203 203 202 197 193 194 196 197 199 204 204 202 203 204 202 206 209 212 214 210 230 248 235 235 231 223 217 211 211 213 214 214 213 214 220 226 210 188 158 129 119 112 102 95 102 121 119 92 48 20 349 4 62 234 256 164 275 318 306 190 152 115 178 195 252 277 285 278 289 272 244 240 249 260 260 257 257 253 252 253 254 255
203 201 202 202 203 205 206 208 210 207 203 202 202 201 202 202 203 203 201 200 200 201 202 201 202 210 240 244 234 235 229 223 218 213 212 213 215 215 213 213 212 217 210 186 171 147 127 115 111 102 83 82 87 92 74 339 289 316 19 238 232 197 212 300 316 276 95 94 212 228 236 256 269 269 272 285 274 255 253 261 265 263 262 260 258 256 255 254
212 213 211 210 211 210 210 212 210 208 207 205 205 205 204 204 204 202 198 198 190 178 195 198 174 179 244 229 221 222 224 222 218 213 212 212 212 213 213 211 207 211 195 174 181 142 105 91 104 88 21 29 62 103 139 220 210 189 171 178 245 233 210 258 283 256 115 75 232 230 247 255 266 272 269 271 273 266 264 267 269 266 264 263 260 258 257 255
214 219 221 220 220 217 216 217 212 208 206 203 202 195 191 187 185 196 201 196 184 166 188 201 189 160 198 213 216 218 218 214 212 210 210 208 207 207 206 204 201 188 155 153 155 106 109 86 81 85 245 219 190 165 186 198 161 156 167 154 176 210 246 239 251 256 174 157 235 230 240 251 260 270 270 270 268 263 267 270 269 267 264 261 260 259 258 257
209 216 223 226 228 225 222 221 219 213 206 204 197 184 174 159 143 194 207 204 205 203 204 199 198 195 147 160 206 215 214 206 207 207 204 203 201 198 193 185 178 153 130 155 160 105 110 103 136 212 220 210 200 183 169 149 124 123 131 135 170 195 266 253 255 289 196 181 249 236 238 256 260 266 271 271 268 259 263 266 265 265 263 261 260 260 259 259
198 206 215 223 228 230 228 224 222 215 209 204 194 188 186 177 163 201 202 212 225 221 223 221 207 208 214 211 187 196 200 197 203 203 200 199 193 188 184 169 142 130 187 119 114 98 101 133 219 226 214 191 182 157 127 112 97 97 128 162 222 205 253 253 252 309 225 183 265 267 261 262 255 260 270 271 264 250 254 258 261 263 263 263 262 262 261 260
198 200 203 217 224 227 229 225 221 216 210 204 199 202 212 209 210 220 204 230 246 232 230 231 225 221 223 229 224 205 190 184 198 200 195 189 186 187 179 156 128 155 178 98 103 66 75 213 240 226 135 96 96 118 119 116 98 86 122 156 250 238 270 280 301 336 10 189 268 299 285 268 256 254 263 262 253 252 255 254 258 263 263 264 263 264 263 261
206 204 203 214 221 226 229 226 221 214 208 205 203 209 220 221 219 229 241 280 268 246 233 232 233 230 226 227 229 217 200 192 194 195 193 187 185 187 172 149 120 133 144 168 159 134 145 246 256 208 145 112 71 88 104 103 115 145 154 169 240 240 266 282 298 320 324 185 281 304 287 272 259 248 254 256 253 257 261 259 260 262 262 264 264 264 265 264
208 210 216 220 224 229 227 226 222 213 207 205 205 210 217 220 217 228 243 313 293 256 236 234 234 233 229 228 228 219 207 210 207 195 195 189 178 176 175 154 118 127 181 196 173 171 220 256 285 136 150 134 104 113 127 138 234 243 198 196 218 221 219 232 286 318 324 8 6 332 293 275 252 242 250 262 262 262 262 260 261 261 261 262 263 264 264 265
208 210 219 223 229 234 228 227 221 212 210 206 205 208 211 213 206 198 151 15 307 270 244 234 229 235 231 224 223 211 202 220 220 204 199 193 182 165 158 153 139 178 201 174 155 223 251 244 120 106 110 121 124 155 178 170 205 281 232 207 215 218 223 240 337 2 353 327 339 14 317 285 266 240 252 283 309 268 261 258 258 261 262 261 262 266 267 267
212 212 216 221 229 231 226 225 216 212 211 205 204 203 200 195 175 159 124 51 301 249 198 207 211 224 219 209 200 186 197 238 218 207 198 196 192 173 144 142 136 196 181 146 148 235 236 191 116 118 122 126 134 200 223 177 143 300 253 207 208 199 201 232 249 48 280 261 280 49 10 280 277 220 238 259 264 266 272 272 263 263 265 263 265 270 272 272
215 214 215 218 226 227 221 219 218 212 203 200 200 193 185 173 156 152 120 27 285 195 151 178 182 190 198 190 182 175 192 199 183 198 194 190 195 185 171 162 120 188 165 133 203 248 170 136 84 112 121 121 143 219 225 162 134 246 250 158 160 164 184 202 164 180 239 276 310 38 111 275 280 243 244 249 248 272 281 276 269 264 265 267 270 274 276 276
222 221 219 216 227 236 231 230 229 208 191 197 189 178 168 157 149 137 112 354 257 142 139 173 162 175 180 175 178 171 133 142 145 190 187 184 190 185 187 191 169 180 171 151 210 256 153 163 177 157 137 151 183 226 190 153 145 249 213 120 136 151 158 137 122 171 321 358 304 296 129 264 275 256 309 320 238 260 265 260 264 266 269 273 274 276 280 278
231 232 228 221 227 235 233 233 226 194 184 179 169 166 154 147 144 111 90 226 199 110 128 158 149 162 154 160 179 165 125 138 110 174 177 179 186 179 184 193 169 149 176 186 204 235 104 180 190 159 150 194 199 287 188 167 176 183 137 98 84 79 81 85 102 114 45 323 254 210 165 237 275 233 132 48 221 237 250 252 259 270 275 275 269 269 275 273
234 237 237 230 223 220 223 226 216 196 179 160 160 160 147 142 135 99 138 226 181 90 108 145 159 161 147 148 187 162 119 96 103 146 161 175 182 165 119 159 145 114 124 316 240 234 346 110 171 163 168 173 133 65 49 131 138 138 119 74 62 41 43 54 46 81 53 285 262 206 187 203 271 260 178 192 219 219 232 252 268 275 270 260 256 262 267 265
233 235 237 238 229 219 220 221 210 196 178 161 160 154 143 133 98 136 195 226 55 111 116 140 165 149 150 149 175 173 108 42 131 145 149 161 169 147 117 137 118 83 5 301 285 310 334 131 197 192 164 131 105 69 38 67 119 124 94 88 85 356 10 26 355 47 126 256 272 262 217 208 242 255 228 243 263 240 221 239 262 271 258 242 240 257 263 260
233 233 233 237 236 228 226 227 212 191 177 165 162 155 144 117 45 204 208 74 77 196 156 165 185 156 159 145 149 166 127 93 162 159 151 144 162 179 178 180 164 117 275 239 242 332 259 218 230 144 167 159 123 78 47 24 37 110 99 114 104 336 348 346 312 65 233 251 269 334 305 238 243 250 252 260 266 250 224 232 246 256 259 256 252 254 258 259
229 232 232 232 236 232 231 233 218 192 181 170 164 155 125 143 195 212 212 175 201 213 129 121 129 148 155 146 164 167 131 164 181 169 154 139 168 210 234 227 182 151 198 193 181 215 262 295 187 134 209 195 170 151 155 218 202 172 149 142 142 135 160 278 277 261 268 267 285 339 210 248 266 260 237 239 248 248 240 245 252 257 265 271 272 267 265 265
224 226 227 229 235 236 235 235 219 198 184 171 163 144 121 182 202 206 209 209 148 30 58 98 108 127 150 157 202 174 143 207 176 151 146 140 165 213 233 234 211 148 103 146 167 182 219 286 202 174 192 187 188 192 167 138 159 186 159 140 158 156 168 212 217 225 261 284 293 304 223 207 220 254 232 233 254 259 250 248 254 259 263 270 275 274 273 272
229 224 222 227 232 232 234 233 220 201 181 169 161 152 172 190 214 208 207 195 118 41 38 76 101 119 176 296 290 193 169 210 166 135 158 169 186 203 198 210 202 166 135 176 215 165 199 269 239 233 148 170 184 194 128 110 139 209 123 120 190 184 160 177 199 184 192 314 299 242 228 220 215 264 261 250 264 263 251 250 255 258 258 262 268 271 273 274
234 224 220 225 227 227 229 227 219 200 179 166 159 211 198 204 205 192 191 155 146 133 104 85 83 113 189 247 268 224 217 111 152 150 196 203 228 208 198 214 196 182 179 180 184 143 164 280 290 347 11 173 184 181 125 134 180 166 134 179 216 174 128 118 228 76 68 281 274 210 249 288 306 277 262 243 252 257 258 261 255 254 257 259 262 265 270 274
229 218 219 221 223 227 225 222 218 196 179 172 183 202 202 222 202 158 143 138 140 141 136 161 171 150 180 189 201 207 199 102 159 176 198 194 252 207 198 231 194 190 201 189 191 199 163 258 303 53 216 253 333 89 73 55 118 125 180 204 179 113 92 107 204 4 43 252 271 247 254 284 293 275 286 148 237 253 256 254 254 259 262 259 258 262 269 274
232 225 226 224 223 224 221 220 212 189 178 179 215 215 210 223 207 155 126 131 132 145 162 196 187 165 178 185 194 188 177 171 173 187 186 180 244 203 177 205 200 198 205 194 210 248 153 229 298 53 207 282 19 116 108 16 70 124 185 180 131 143 189 127 164 203 190 240 276 295 283 267 224 231 244 182 212 239 248 246 252 257 250 248 256 259 261 265
235 231 238 233 222 219 220 218 200 183 178 184 202 213 221 224 225 166 138 160 163 169 187 199 185 157 176 176 162 166 183 185 170 177 185 183 233 202 176 192 203 199 197 185 192 239 148 206 273 336 243 304 33 175 187 194 34 49 84 146 126 149 175 168 158 173 181 214 273 314 313 268 228 202 191 198 207 211 218 228 236 239 234 233 246 250 245 251
225 221 252 241 221 215 216 212 195 180 181 202 197 203 193 213 231 215 195 189 117 194 209 202 177 162 181 180 156 166 192 192 173 181 201 190 214 231 189 184 161 169 183 181 192 187 113 208 243 302 315 192 186 212 191 179 168 145 161 180 197 158 125 178 139 114 135 150 217 281 283 267 243 176 178 198 207 200 194 208 223 232 236 225 216 230 238 228
212 210 249 231 215 209 202 199 194 187 189 204 212 224 207 208 226 217 221 227 261 319 342 250 197 176 166 176 189 183 175 177 178 189 220 202 209 245 200 181 157 133 147 173 202 201 165 195 188 177 240 212 222 240 206 193 184 180 191 194 192 174 133 155 232 256 134 153 191 178 264 273 249 164 188 197 198 199 198 212 222 225 231 229 216 222 219 191
207 214 226 201 194 194 190 189 193 192 189 201 212 213 202 219 194 196 212 217 228 270 357 356 246 205 169 173 190 170 154 168 186 191 221 216 211 222 199 184 168 153 147 165 204 194 162 122 141 188 216 218 240 277 216 217 183 162 195 194 180 157 141 165 205 226 174 195 213 111 265 274 243 160 189 193 199 209 201 207 224 230 227 219 216 219 207 190
220 225 210 198 200 190 184 191 213 189 204 218 211 209 201 216 201 175 183 191 201 218 220 235 221 209 217 167 157 166 172 184 191 197 218 228 223 225 191 179 168 155 152 161 200 171 134 121 184 233 292 319 329 351 30 32 86 134 243 170 167 188 191 181 191 190 158 191 197 118 248 264 258 167 209 218 235 237 213 210 221 232 230 217 215 212 200 199
250 241 206 195 198 190 182 194 202 193 216 213 206 211 218 230 214 189 184 180 184 177 191 221 214 205 221 156 145 180 192 194 200 208 216 228 231 220 183 177 172 166 177 183 172 166 162 187 193 195 295 312 317 297 297 343 162 197 222 188 184 195 182 129 90 166 173 211 198 176 243 254 270 7 255 246 254 250 233 221 220 224 222 219 221 207 197 205
276 259 223 201 194 189 192 206 200 194 210 210 211 205 210 235 222 210 208 189 191 186 182 220 221 205 206 133 129 175 198 209 219 211 217 238 251 206 186 183 179 186 203 195 172 169 169 189 181 183 224 230 231 234 220 193 164 195 218 191 190 192 180 180 204 184 218 227 200 185 240 249 269 35 244 237 249 251 239 229 228 230 225 223 226 212 201 210
256 237 226 205 197 197 205 208 202 202 202 206 216 205 205 224 220 210 209 201 200 201 205 225 211 176 134 181 199 215 214 225 231 200 206 229 233 334 194 190 188 198 208 194 166 165 155 232 192 194 211 218 233 240 193 131 146 200 211 196 194 199 191 190 205 207 222 231 217 214 233 248 262 254 230 226 225 228 236 232 230 234 231 224 222 219 216 219
242 225 199 197 206 214 225 214 204 204 194 192 196 188 203 218 225 206 202 202 200 200 213 234 191 171 178 192 212 227 216 221 228 215 213 213 226 329 220 195 200 207 207 191 172 161 107 244 211 215 218 219 235 238 192 150 177 201 204 197 196 198 191 190 209 221 220 223 237 235 231 246 260 256 238 222 219 222 241 240 230 233 236 229 220 220 226 227
229 247 225 198 198 217 227 220 210 208 202 195 195 196 201 208 217 207 197 202 201 194 201 225 203 199 195 191 205 223 208 207 218 219 224 214 181 344 235 222 223 214 205 190 182 166 153 224 213 221 227 229 240 238 200 178 198 202 199 198 194 191 192 198 214 223 220 214 236 246 238 234 248 254 246 222 201 206 223 230 229 232 237 235 225 221 225 229
226 251 256 241 243 259 269 259 213 207 213 203 201 220 213 208 213 210 189 189 206 198 196 208 212 212 209 201 204 213 206 203 212 217 221 216 194 172 203 242 235 211 193 181 199 183 175 220 215 215 226 230 236 238 218 199 211 215 203 198 193 192 196 204 215 223 223 224 235 247 249 244 242 250 253 225 200 209 218 223 225 227 230 233 231 225 225 228
219 232 245 250 258 266 280 288 208 197 223 207 200 227 227 219 220 214 192 187 197 194 195 210 219 212 211 214 212 217 217 208 214 219 209 210 212 194 204 214 194 193 189 179 221 202 185 220 223 214 231 238 237 244 238 217 216 226 219 200 197 203 206 210 217 222 223 230 236 239 249 256 249 246 245 208 199 207 213 214 221 228 232 235 235 231 228 228
225 226 229 236 280 249 254 250 187 196 230 199 197 214 222 232 232 228 212 207 208 202 192 207 222 217 213 219 218 225 228 219 223 228 212 207 215 210 216 210 152 142 191 192 186 179 187 227 238 192 234 244 238 246 247 237 229 240 243 226 214 214 215 213 215 218 217 223 231 236 245 255 252 226 179 187 190 197 208 214 222 231 235 237 237 235 232 231
229 231 231 232 252 230 230 230 178 203 224 200 199 209 211 221 222 222 240 223 218 223 214 205 213 219 217 220 219 223 228 228 233 239 236 232 232 231 239 228 186 160 173 189 188 171 177 207 223 207 226 240 238 242 248 250 249 245 240 233 228 223 220 219 222 226 224 219 223 229 234 245 246 192 162 198 186 188 209 216 223 231 234 236 238 236 236 237
Height
1518 1519 1521 1522 1523 1524 1525 1526 1527 1527 1528 1529 1529 1530 1531 1532 1533 1534 1535 1536 1537 1538 1539 1540 1541 1541 1542 1542 1543 1543 1543 1544 1544 1545 1545 1545 1545 1546 1546 1547 1547 1547 1548 1548 1549 1549 1549 1550 1550 1550 1550 1551 1551 1552 1552 1553 1554 1554 1559 1563 1564 1571 1569 1565 1568 1567 1564 1563 1564 1565 1566 1567 1568 1569 1570 1570 1571 1571 1571 1571 1571 1571 1571 1572 1572 1572 1573 1574
1517 1518 1520 1521 1522 1523 1524 1525 1526 1527 1528 1528 1529 1529 1530 1531 1532 1533 1534 1536 1537 1538 1539 1539 1540 1541 1541 1542 1542 1542 1543 1543 1544 1544 1544 1544 1545 1545 1546 1546 1547 1547 1548 1548 1548 1549 1549 1550 1550 1550 1550 1551 1552 1552 1553 1553 1554 1556 1562 1563 1562 1566 1563 1560 1562 1562 1563 1562 1562 1565 1566 1566 1567 1568 1569 1570 1570 1570 1571 1570 1570 1570 1570 1570 1571 1571 1572 1572
1515 1517 1519 1520 1521 1522 1523 1524 1525 1526 1527 1527 1528 1529 1529 1530 1531 1533 1534 1535 1536 1537 1538 1539 1540 1540 1541 1541 1542 1542 1542 1543 1543 1543 1543 1544 1544 1545 1545 1546 1546 1547 1547 1548 1548 1549 1549 1549 1550 1550 1551 1551 1552 1552 1552 1553 1554 1556 1559 1559 1559 1561 1560 1560 1561 1561 1562 1562 1563 1565 1565 1566 1567 1567 1568 1569 1569 1569 1569 1568 1568 1568 1568 1569 1570 1570 1571 1571
1514 1516 1517 1519 1520 1521 1522 1524 1525 1526 1526 1527 1528 1528 1529 1530 1531 1532 1533 1534 1535 1536 1537 1538 1539 1540 1541 1541 1541 1542 1542 1542 1542 1543 1543 1543 1544 1544 1545 1545 1546 1547 1547 1548 1548 1548 1549 1549 1550 1550 1550 1551 1552 1552 1553 1554 1554 1556 1557 1557 1559 1560 1560 1560 1561 1561 1562 1562 1563 1564 1566 1567 1566 1567 1567 1567 1569 1568 1566 1565 1566 1566 1567 1568 1569 1569 1569 1570
1513 1514 1516 1518 1519 1520 1522 1523 1524 1525 1526 1527 1527 1528 1529 1529 1531 1532 1533 1534 1534 1535 1536 1537 1538 1539 1540 1541 1541 1541 1542 1543 1542 1542 1543 1543 1543 1544 1545 1545 1546 1547 1547 1547 1548 1548 1549 1549 1550 1550 1550 1551 1552 1552 1554 1555 1554 1556 1558 1558 1559 1560 1560 1560 1561 1562 1562 1563 1563 1564 1565 1565 1566 1567 1566 1567 1566 1564 1563 1564 1565 1565 1566 1567 1567 1567 1568 1568
1511 1513 1515 1516 1518 1519 1521 1522 1523 1524 1525 1526 1527 1527 1528 1529 1530 1531 1532 1533 1534 1535 1536 1537 1538 1539 1539 1540 1541 1541 1542 1543 1543 1542 1543 1543 1543 1544 1545 1545 1546 1547 1547 1547 1548 1548 1549 1549 1549 1550 1550 1552 1553 1553 1554 1555 1555 1556 1558 1559 1559 1559 1560 1560 1561 1561 1562 1563 1563 1564 1564 1565 1565 1565 1565 1565 1562 1560 1562 1563 1564 1564 1565 1565 1565 1565 1566 1566
1510 1512 1513 1515 1517 1518 1519 1521 1522 1523 1524 1525 1526 1527 1527 1528 1529 1530 1531 1532 1533 1534 1535 1537 1537 1538 1539 1540 1540 1540 1541 1542 1542 1543 1543 1543 1544 1544 1545 1546 1546 1547 1547 1548 1548 1548 1548 1549 1549 1550 1550 1552 1554 1554 1555 1555 1555 1555 1558 1559 1559 1560 1560 1560 1561 1561 1562 1562 1562 1563 1564 1564 1564 1564 1564 1561 1558 1560 1561 1562 1562 1563 1563 1563 1563 1564 1564 1564
1509 1510 1512 1513 1515 1516 1518 1519 1521 1522 1523 1524 1525 1526 1527 1528 1529 1530 1531 1532 1533 1534 1535 1536 1537 1538 1539 1539 1540 1540 1541 1541 1542 1543 1543 1544 1544 1545 1545 1546 1546 1547 1547 1547 1548 1548 1548 1548 1549 1549 1551 1553 1553 1554 1555 1555 1555 1556 1558 1559 1559 1560 1560 1560 1561 1561 1562 1562 1563 1563 1563 1564 1563 1564 1563 1557 1556 1560 1560 1560 1560 1560 1561 1561 1561 1561 1562 1562
1508 1509 1511 1512 1513 1515 1517 1518 1520 1521 1522 1523 1524 1525 1526 1527 1528 1529 1530 1531 1532 1533 1535 1536 1537 1537 1538 1539 1539 1540 1540 1541 1542 1542 1543 1544 1544 1545 1545 1546 1546 1547 1547 1547 1547 1547 1548 1548 1549 1549 1550 1553 1554 1554 1555 1555 1556 1557 1558 1559 1559 1560 1560 1560 1561 1561 1562 1562 1563 1563 1563 1563 1563 1564 1559 1553 1555 1557 1557 1557 1558 1558 1558 1558 1559 1559 1560 1561
1507 1509 1510 1511 1512 1514 1515 1517 1519 1520 1521 1523 1523 1525 1525 1526 1527 1528 1529 1530 1531 1533 1534 1535 1536 1537 1538 1538 1539 1539 1540 1541 1541 1542 1543 1543 1544 1545 1545 1546 1546 1546 1547 1547 1547 1547 1548 1548 1549 1550 1550 1552 1554 1555 1556 1556 1557 1558 1558 1559 1559 1559 1560 1560 1560 1561 1561 1562 1562 1562 1562 1562 1563 1564 1556 1551 1554 1555 1555 1555 1555 1555 1555 1555 1556 1557 1558 1559
1507 1508 1509 1511 1512 1513 1514 1516 1517 1519 1520 1521 1523 1524 1525 1526 1526 1527 1528 1529 1531 1532 1533 1534 1535 1536 1537 1538 1539 1539 1539 1540 1541 1542 1543 1543 1544 1545 1545 1546 1546 1546 1547 1547 1547 1547 1548 1548 1550 1550 1550 1553 1554 1556 1556 1557 1558 1558 1558 1559 1560 1559 1559 1559 1560 1561 1561 1561 1562 1562 1562 1562 1564 1562 1553 1550 1553 1553 1553 1553 1553 1553 1553 1553 1554 1555 1556 1556
1506 1507 1509 1510 1511 1513 1514 1515 1517 1518 1520 1521 1522 1523 1524 1525 1526 1527 1528 1529 1530 1531 1532 1534 1535 1536 1537 1537 1538 1539 1539 1540 1540 1541 1542 1543 1544 1545 1545 1546 1546 1546 1546 1547 1547 1548 1548 1549 1550 1550 1551 1553 1554 1556 1557 1558 1559 1558 1559 1560 1560 1560 1559 1559 1560 1560 1560 1561 1561 1562 1562 1559 1560 1556 1548 1550 1551 1551 1551 1551 1550 1551 1551 1552 1552 1553 1553 1554
1505 1506 1508 1509 1510 1512 1513 1515 1516 1518 1519 1520 1521 1522 1523 1524 1525 1526 1527 1528 1529 1530 1532 1533 1534 1535 1536 1537 1537 1538 1539 1539 1540 1541 1542 1543 1544 1544 1545 1546 1546 1546 1547 1547 1547 1548 1549 1549 1550 1551 1552 1553 1555 1556 1557 1559 1558 1559 1561 1561 1562 1562 1560 1559 1560 1560 1560 1561 1560 1563 1562 1554 1552 1550 1547 1550 1550 1549 1550 1548 1548 1548 1549 1550 1550 1550 1550 1551
1504 1505 1507 1508 1509 1511 1512 1514 1515 1517 1518 1519 1520 1522 1523 1524 1525 1526 1527 1528 1529 1530 1531 1532 1533 1534 1536 1536 1536 1537 1538 1539 1540 1540 1541 1542 1543 1544 1545 1546 1546 1547 1547 1547 1548 1548 1549 1550 1551 1551 1552 1553 1555 1556 1558 1560 1560 1561 1563 1564 1569 1567 1561 1559 1561 1560 1559 1561 1560 1563 1563 1552 1548 1548 1547 1548 1548 1548 1547 1545 1546 1546 1547 1548 1548 1548 1548 1549
1503 1504 1506 1507 1508 1510 1511 1513 1514 1515 1517 1518 1519 1521 1522 1523 1524 1525 1526 1527 1528 1529 1530 1531 1533 1534 1535 1535 1535 1536 1537 1538 1538 1539 1540 1541 1543 1544 1545 1545 1546 1547 1547 1548 1548 1549 1549 1550 1550 1551 1553 1554 1555 1557 1560 1562 1563 1566 1564 1566 1574 1572 1563 1559 1559 1560 1559 1559 1560 1562 1562 1553 1548 1546 1545 1546 1546 1546 1545 1543 1544 1544 1545 1545 1545 1546 1545 1546
1502 1503 1505 1506 1507 1509 1510 1512 1513 1515 1516 1517 1519 1520 1521 1522 1523 1524 1525 1526 1528 1529 1529 1531 1532 1533 1534 1533 1534 1535 1535 1536 1537 1538 1539 1540 1542 1543 1544 1545 1546 1546 1547 1548 1548 1549 1549 1550 1551 1553 1554 1555 1557 1557 1560 1564 1565 1569 1567 1565 1571 1571 1567 1562 1558 1560 1560 1559 1560 1560 1559 1552 1546 1544 1544 1545 1544 1545 1543 1542 1542 1542 1542 1543 1543 1543 1542 1543
1501 1502 1503 1505 1506 1508 1509 1511 1512 1514 1515 1517 1518 1519 1520 1521 1522 1524 1525 1526 1527 1528 1529 1530 1531 1533 1533 1532 1533 1533 1533 1534 1535 1537 1538 1540 1541 1542 1543 1544 1545 1546 1547 1547 1548 1549 1549 1550 1552 1554 1554 1557 1558 1558 1563 1568 1565 1568 1572 1569 1570 1571 1569 1564 1557 1559 1561 1560 1560 1560 1559 1551 1545 1544 1544 1544 1544 1544 1542 1540 1540 1540 1540 1540 1540 1540 1539 1539
1499 1501 1502 1504 1505 1506 1508 1509 1511 1513 1514 1516 1517 1518 1520 1521 1522 1523 1524 1525 1526 1528 1529 1529 1531 1533 1532 1529 1530 1530 1531 1533 1534 1535 1537 1538 1540 1541 1542 1543 1545 1546 1546 1547 1548 1549 1550 1551 1553 1554 1556 1558 1559 1559 1562 1564 1560 1561 1567 1567 1568 1570 1571 1567 1560 1559 1560 1560 1560 1560 1559 1552 1546 1543 1542 1543 1544 1543 1540 1538 1538 1537 1538 1538 1537 1536 1536 1535
1498 1499 1500 1502 1503 1505 1506 1508 1510 1511 1513 1515 1516 1518 1519 1520 1521 1522 1523 1524 1525 1526 1527 1526 1527 1530 1528 1526 1527 1529 1530 1532 1533 1534 1536 1537 1538 1540 1541 1543 1544 1545 1546 1547 1548 1549 1550 1551 1554 1556 1556 1555 1556 1556 1555 1556 1556 1557 1561 1562 1562 1563 1566 1565 1560 1559 1560 1560 1559 1558 1554 1550 1546 1543 1540 1541 1542 1541 1538 1536 1534 1533 1534 1534 1533 1532 1532 1531
1496 1497 1499 1500 1502 1503 1505 1506 1508 1510 1512 1514 1515 1517 1518 1519 1521 1522 1522 1522 1522 1522 1522 1523 1523 1525 1525 1525 1526 1528 1529 1531 1531 1533 1534 1535 1537 1539 1540 1542 1543 1545 1546 1547 1549 1550 1551 1553 1555 1553 1550 1549 1552 1554 1554 1557 1559 1560 1561 1562 1564 1564 1562 1559 1559 1560 1561 1559 1554 1553 1552 1550 1546 1542 1538 1538 1540 1539 1536 1532 1530 1528 1529 1528 1528 1527 1527 1527
1495 1496 1497 1498 1500 1501 1503 1505 1506 1508 1510 1512 1514 1515 1516 1517 1518 1519 1519 1520 1520 1520 1521 1522 1523 1523 1524 1525 1525 1526 1528 1529 1530 1531 1533 1534 1536 1538 1540 1542 1543 1546 1548 1548 1550 1550 1552 1555 1552 1547 1546 1549 1553 1555 1557 1559 1560 1560 1562 1563 1565 1568 1562 1557 1559 1560 1561 1560 1553 1551 1552 1548 1545 1542 1537 1536 1537 1534 1531 1529 1525 1523 1523 1523 1522 1521 1521 1523
1495 1495 1496 1498 1498 1500 1502 1503 1505 1507 1509 1511 1512 1514 1515 1515 1516 1517 1517 1518 1518 1519 1520 1520 1521 1522 1523 1524 1524 1525 1527 1528 1529 1530 1531 1533 1534 1536 1538 1541 1542 1545 1549 1549 1550 1553 1556 1554 1547 1545 1549 1552 1554 1557 1557 1558 1560 1561 1563 1564 1564 1566 1562 1558 1560 1561 1560 1559 1553 1551 1551 1544 1541 1541 1535 1532 1530 1526 1524 1523 1520 1519 1520 1519 1517 1516 1517 1519
1495 1495 1496 1497 1498 1499 1500 1502 1504 1505 1507 1509 1511 1512 1513 1514 1516 1517 1517 1518 1517 1516 1517 1517 1518 1519 1521 1522 1523 1524 1525 1526 1528 1528 1530 1532 1533 1535 1536 1539 1542 1545 1548 1548 1548 1553 1555 1551 1545 1546 1550 1551 1554 1558 1558 1559 1560 1560 1562 1563 1562 1564 1562 1556 1557 1560 1560 1559 1555 1553 1551 1541 1536 1536 1531 1525 1523 1521 1520 1518 1517 1517 1516 1513 1512 1513 1514 1514
1494 1495 1496 1496 1498 1498 1499 1501 1502 1504 1506 1507 1509 1510 1512 1514 1515 1516 1517 1518 1517 1514 1514 1515 1516 1516 1517 1519 1521 1522 1523 1524 1525 1526 1528 1530 1532 1534 1535 1537 1542 1545 1547 1546 1547 1549 1548 1546 1546 1547 1549 1550 1554 1558 1558 1558 1559 1559 1560 1560 1559 1559 1559 1557 1558 1559 1558 1559 1559 1555 1544 1532 1529 1530 1524 1520 1521 1519 1515 1514 1513 1512 1510 1508 1508 1509 1510 1509
1493 1495 1495 1496 1497 1497 1498 1500 1500 1503 1504 1505 1507 1508 1511 1513 1514 1516 1517 1520 1518 1513 1512 1512 1513 1513 1514 1517 1518 1520 1522 1522 1523 1524 1526 1528 1529 1532 1535 1537 1540 1543 1545 1547 1549 1549 1546 1546 1547 1548 1550 1551 1553 1556 1556 1556 1557 1557 1556 1556 1555 1554 1556 1558 1560 1560 1557 1557 1559 1557 1544 1529 1525 1527 1522 1518 1520 1516 1511 1511 1509 1505 1504 1505 1505 1504 1505 1506
1492 1494 1494 1495 1496 1496 1498 1498 1499 1501 1501 1504 1505 1506 1510 1511 1514 1516 1517 1524 1521 1510 1509 1510 1510 1510 1510 1513 1515 1519 1524 1520 1519 1522 1524 1526 1528 1529 1533 1536 1538 1540 1543 1546 1549 1547 1545 1546 1546 1548 1550 1552 1553 1555 1554 1554 1557 1558 1554 1553 1554 1555 1557 1559 1559 1561 1559 1556 1559 1560 1554 1540 1524 1520 1519 1517 1517 1512 1509 1509 1504 1501 1501 1501 1502 1501 1502 1502
1490 1492 1493 1494 1494 1495 1497 1497 1498 1499 1499 1503 1502 1505 1509 1509 1515 1514 1517 1532 1522 1502 1503 1507 1506 1506 1506 1509 1512 1517 1521 1516 1516 1521 1522 1525 1528 1528 1531 1535 1537 1538 1540 1545 1547 1544 1542 1545 1547 1547 1549 1552 1554 1552 1551 1553 1556 1555 1554 1554 1555 1555 1557 1558 1559 1561 1559 1559 1560 1559 1559 1552 1530 1518 1519 1517 1516 1514 1510 1507 1499 1497 1498 1498 1499 1499 1499 1500
1487 1490 1491 1493 1493 1494 1496 1496 1497 1497 1499 1500 1501 1506 1508 1509 1515 1512 1521 1535 1515 1493 1498 1502 1502 1504 1505 1509 1510 1512 1514 1512 1515 1520 1521 1524 1526 1527 1529 1532 1533 1534 1536 1539 1540 1540 1539 1542 1544 1545 1547 1550 1550 1548 1548 1550 1551 1552 1556 1557 1556 1556 1557 1558 1560 1562 1565 1564 1560 1556 1560 1556 1531 1518 1523 1521 1517 1514 1508 1502 1495 1493 1496 1496 1497 1497 1497 1497
1484 1487 1488 1491 1491 1493 1494 1494 1496 1497 1498 1498 1501 1505 1506 1510 1512 1512 1528 1531 1502 1489 1497 1498 1501 1504 1504 1509 1510 1510 1511 1512 1514 1517 1520 1523 1525 1526 1528 1530 1531 1533 1536 1535 1535 1538 1539 1540 1540 1541 1544 1545 1546 1548 1549 1548 1548 1552 1557 1557 1557 1560 1560 1562 1561 1561 1566 1564 1554 1552 1556 1551 1527 1512 1519 1523 1518 1511 1503 1498 1494 1493 1494 1494 1495 1495 1495 1495
1482 1483 1486 1488 1489 1490 1491 1492 1495 1496 1497 1498 1500 1503 1506 1509 1510 1519 1535 1520 1491 1492 1498 1497 1501 1503 1503 1508 1512 1512 1512 1513 1514 1516 1521 1523 1524 1526 1527 1529 1532 1534 1537 1536 1537 1538 1539 1540 1540 1540 1540 1540 1544 1549 1550 1549 1549 1551 1554 1553 1556 1560 1560 1563 1564 1563 1565 1557 1547 1549 1549 1547 1532 1514 1512 1516 1511 1506 1500 1496 1493 1492 1493 1493 1493 1494 1494 1494
1479 1481 1484 1485 1485 1486 1488 1490 1493 1494 1496 1497 1499 1502 1505 1509 1512 1521 1524 1502 1487 1494 1497 1498 1502 1501 1502 1505 1508 1511 1513 1515 1515 1516 1520 1522 1524 1526 1527 1530 1533 1537 1540 1538 1538 1540 1540 1540 1539 1538 1538 1539 1543 1547 1550 1552 1551 1551 1550 1550 1554 1558 1560 1564 1565 1565 1564 1552 1546 1554 1554 1551 1539 1516 1508 1509 1504 1503 1501 1496 1493 1492 1491 1491 1492 1493 1493 1493
1476 1478 1481 1482 1482 1484 1485 1487 1490 1493 1495 1496 1499 1500 1502 1512 1517 1513 1503 1490 1488 1491 1491 1496 1500 1501 1503 1503 1505 1510 1511 1514 1515 1515 1517 1521 1524 1523 1522 1524 1527 1534 1539 1536 1537 1540 1538 1537 1537 1537 1538 1538 1539 1545 1552 1553 1553 1552 1550 1552 1558 1563 1565 1563 1566 1572 1567 1551 1550 1558 1556 1548 1531 1509 1506 1506 1500 1499 1499 1496 1493 1491 1490 1489 1491 1492 1491 1492
1474 1476 1478 1479 1479 1481 1482 1486 1490 1492 1494 1495 1498 1498 1502 1513 1510 1497 1490 1485 1484 1486 1487 1492 1496 1499 1502 1502 1505 1508 1509 1512 1514 1515 1516 1519 1522 1522 1520 1520 1521 1524 1527 1531 1538 1539 1536 1535 1537 1537 1536 1535 1533 1537 1546 1548 1550 1550 1547 1549 1555 1564 1568 1565 1570 1577 1565 1549 1552 1560 1554 1540 1521 1503 1498 1497 1492 1492 1494 1493 1491 1490 1488 1486 1487 1489 1489 1490
1471 1474 1475 1476 1477 1478 1480 1484 1487 1489 1491 1494 1496 1497 1503 1507 1495 1484 1484 1482 1482 1488 1490 1491 1496 1500 1501 1501 1504 1505 1507 1511 1513 1514 1516 1519 1522 1522 1520 1520 1521 1520 1523 1531 1536 1536 1534 1529 1528 1530 1529 1528 1527 1527 1530 1536 1544 1546 1544 1545 1546 1550 1555 1553 1555 1555 1547 1543 1552 1559 1549 1526 1507 1495 1490 1489 1489 1490 1490 1489 1489 1487 1486 1485 1484 1485 1485 1486
1468 1471 1473 1474 1474 1476 1477 1481 1484 1486 1489 1492 1495 1496 1498 1495 1485 1478 1479 1479 1484 1490 1492 1493 1497 1502 1504 1504 1504 1503 1503 1509 1513 1514 1516 1517 1517 1516 1515 1514 1516 1518 1521 1526 1529 1533 1534 1524 1520 1524 1523 1523 1525 1524 1526 1532 1541 1545 1545 1545 1543 1540 1539 1545 1554 1555 1552 1551 1549 1548 1535 1513 1500 1491 1487 1488 1487 1486 1486 1485 1486 1484 1483 1485 1482 1481 1481 1482
1466 1468 1470 1470 1471 1472 1474 1478 1481 1484 1485 1489 1495 1495 1488 1479 1473 1471 1471 1473 1480 1486 1492 1497 1497 1501 1505 1505 1505 1505 1502 1505 1511 1514 1515 1515 1513 1511 1509 1507 1508 1512 1512 1515 1521 1527 1530 1525 1523 1525 1523 1524 1525 1524 1526 1528 1532 1542 1545 1542 1540 1539 1536 1542 1558 1567 1567 1556 1539 1533 1522 1507 1500 1487 1479 1485 1483 1481 1484 1482 1483 1481 1480 1483 1481 1478 1479 1478
1464 1465 1466 1466 1467 1469 1472 1475 1478 1481 1483 1486 1489 1484 1476 1469 1465 1466 1468 1470 1474 1479 1485 1490 1492 1495 1500 1502 1503 1504 1502 1504 1509 1511 1511 1514 1510 1503 1505 1503 1503 1505 1503 1506 1512 1515 1517 1520 1524 1527 1524 1526 1527 1525 1528 1527 1527 1537 1541 1536 1536 1542 1541 1540 1548 1558 1566 1557 1537 1529 1522 1511 1508 1490 1476 1482 1481 1477 1480 1479 1479 1478 1478 1480 1478 1476 1477 1475
1462 1463 1463 1462 1464 1466 1469 1472 1474 1476 1480 1483 1483 1477 1472 1468 1463 1464 1468 1469 1471 1474 1477 1480 1483 1486 1491 1496 1498 1500 1500 1501 1507 1509 1508 1511 1503 1491 1496 1499 1497 1499 1499 1502 1508 1510 1512 1515 1523 1532 1529 1526 1528 1527 1528 1529 1529 1530 1531 1530 1532 1537 1540 1543 1546 1545 1551 1553 1537 1527 1524 1512 1501 1486 1473 1476 1477 1472 1473 1476 1476 1475 1473 1474 1473 1473 1474 1473
1460 1462 1459 1457 1461 1464 1467 1470 1471 1472 1474 1477 1480 1477 1471 1467 1464 1465 1467 1468 1469 1471 1471 1472 1475 1481 1486 1488 1491 1496 1498 1496 1501 1505 1501 1503 1497 1484 1486 1489 1490 1495 1498 1502 1506 1508 1511 1512 1519 1531 1530 1528 1528 1527 1527 1529 1531 1531 1530 1531 1531 1531 1533 1537 1540 1536 1536 1544 1536 1525 1518 1494 1473 1471 1468 1468 1470 1466 1468 1472 1471 1470 1469 1469 1471 1472 1472 1471
1458 1459 1455 1454 1458 1462 1465 1469 1469 1469 1470 1471 1472 1471 1467 1465 1464 1465 1467 1469 1470 1470 1469 1468 1470 1476 1481 1483 1486 1489 1492 1491 1495 1497 1493 1493 1491 1483 1482 1483 1487 1494 1497 1501 1504 1505 1510 1510 1514 1527 1532 1529 1523 1519 1518 1518 1523 1527 1529 1532 1530 1532 1535 1533 1536 1536 1532 1536 1538 1534 1517 1476 1453 1461 1462 1459 1463 1462 1465 1467 1465 1467 1467 1467 1469 1470 1470 1470
1456 1456 1452 1452 1456 1459 1463 1467 1465 1465 1468 1470 1469 1467 1466 1465 1464 1465 1466 1470 1472 1470 1470 1469 1468 1470 1474 1480 1482 1482 1487 1490 1492 1493 1489 1488 1485 1479 1478 1478 1483 1490 1497 1505 1505 1503 1507 1508 1511 1524 1529 1522 1513 1512 1513 1511 1512 1514 1515 1519 1518 1522 1530 1531 1536 1539 1534 1531 1532 1535 1517 1468 1446 1459 1459 1456 1461 1459 1461 1464 1461 1463 1465 1466 1469 1469 1469 1469
1452 1451 1449 1451 1455 1456 1460 1462 1460 1462 1465 1466 1464 1464 1464 1463 1462 1463 1465 1469 1473 1472 1472 1472 1470 1469 1470 1473 1476 1478 1483 1487 1489 1490 1485 1482 1478 1474 1473 1474 1477 1481 1488 1497 1497 1493 1498 1503 1508 1516 1517 1514 1512 1513 1515 1513 1511 1512 1512 1513 1513 1516 1520 1521 1526 1529 1532 1533 1529 1536 1523 1469 1443 1457 1456 1454 1460 1457 1458 1461 1460 1461 1461 1463 1467 1466 1467 1467
1449 1447 1447 1450 1452 1453 1457 1459 1458 1460 1461 1459 1459 1460 1461 1461 1461 1462 1463 1467 1472 1472 1472 1472 1470 1469 1469 1468 1472 1476 1478 1480 1483 1483 1479 1477 1474 1471 1472 1474 1476 1478 1481 1487 1490 1491 1497 1502 1504 1507 1508 1510 1513 1514 1515 1514 1514 1514 1514 1513 1513 1512 1510 1511 1515 1516 1523 1527 1523 1533 1524 1469 1443 1458 1457 1455 1460 1458 1457 1459 1458 1460 1459 1460 1463 1463 1464 1465
1446 1446 1447 1448 1449 1450 1452 1452 1454 1456 1456 1456 1458 1460 1460 1459 1459 1460 1461 1463 1466 1468 1470 1469 1467 1467 1467 1466 1468 1471 1472 1474 1477 1477 1475 1474 1472 1471 1472 1473 1475 1477 1478 1480 1482 1486 1494 1498 1501 1506 1509 1510 1511 1512 1513 1514 1514 1511 1509 1509 1508 1506 1508 1513 1515 1515 1517 1512 1507 1519 1509 1465 1449 1461 1458 1456 1461 1458 1457 1458 1456 1458 1458 1459 1461 1460 1461 1463
1446 1446 1445 1445 1446 1445 1444 1443 1446 1451 1452 1453 1456 1457 1459 1458 1456 1456 1458 1459 1461 1463 1465 1465 1464 1465 1466 1467 1467 1468 1469 1469 1470 1472 1473 1472 1471 1470 1471 1472 1474 1474 1473 1475 1475 1478 1484 1488 1492 1501 1507 1505 1501 1496 1494 1500 1509 1508 1503 1505 1505 1503 1506 1507 1509 1515 1512 1499 1499 1506 1487 1454 1450 1459 1456 1457 1461 1457 1456 1456 1457 1457 1456 1457 1459 1459 1459 1460
1445 1444 1443 1443 1443 1440 1439 1439 1442 1445 1447 1450 1452 1452 1454 1455 1453 1453 1456 1458 1459 1460 1461 1461 1462 1465 1468 1469 1469 1469 1469 1467 1468 1471 1472 1471 1469 1470 1470 1471 1472 1472 1472 1475 1476 1478 1481 1482 1482 1484 1487 1487 1480 1475 1476 1485 1496 1499 1494 1496 1499 1499 1500 1502 1506 1508 1498 1490 1493 1489 1469 1452 1450 1453 1454 1456 1457 1456 1455 1454 1455 1454 1452 1453 1456 1457 1457 1457
1444 1441 1439 1440 1440 1437 1436 1437 1439 1440 1441 1445 1447 1446 1448 1451 1451 1452 1454 1455 1456 1457 1458 1458 1460 1463 1466 1467 1469 1469 1468 1468 1468 1469 1470 1469 1468 1470 1471 1471 1471 1471 1472 1474 1475 1478 1481 1480 1478 1476 1473 1470 1465 1464 1471 1476 1478 1481 1482 1487 1492 1494 1496 1500 1498 1488 1482 1487 1485 1469 1464 1466 1455 1444 1449 1454 1453 1454 1454 1452 1451 1450 1451 1451 1453 1454 1454 1454
1441 1438 1435 1436 1436 1434 1433 1434 1435 1437 1438 1440 1442 1441 1443 1447 1449 1450 1451 1452 1452 1453 1456 1456 1457 1458 1458 1460 1464 1466 1465 1467 1469 1467 1466 1467 1468 1470 1470 1470 1471 1470 1471 1474 1473 1474 1477 1475 1473 1473 1471 1467 1461 1461 1468 1469 1466 1468 1472 1476 1483 1488 1492 1493 1485 1472 1470 1478 1473 1458 1461 1466 1451 1437 1440 1446 1449 1450 1449 1448 1448 1448 1450 1450 1449 1449 1449 1451
1437 1435 1434 1434 1434 1432 1431 1431 1433 1435 1436 1438 1439 1439 1439 1441 1442 1443 1446 1449 1450 1450 1451 1453 1452 1452 1453 1454 1457 1459 1460 1463 1465 1463 1461 1463 1465 1467 1468 1467 1468 1469 1470 1472 1471 1471 1472 1470 1467 1467 1467 1465 1461 1459 1461 1464 1463 1464 1468 1471 1475 1480 1482 1477 1469 1462 1464 1469 1465 1457 1455 1451 1439 1431 1433 1438 1444 1445 1445 1445 1446 1446 1447 1446 1445 1445 1445 1447
1433 1433 1432 1433 1433 1431 1431 1432 1433 1434 1434 1436 1438 1437 1437 1437 1437 1438 1440 1443 1446 1446 1446 1447 1446 1446 1449 1450 1451 1452 1451 1453 1455 1455 1456 1458 1461 1463 1463 1460 1461 1466 1469 1469 1469 1469 1470 1466 1462 1464 1467 1465 1462 1459 1459 1462 1464 1463 1465 1469 1471 1471 1468 1464 1460 1461 1467 1468 1460 1456 1454 1442 1427 1426 1431 1435 1438 1440 1442 1442 1442 1443 1442 1441 1441 1441 1442 1444
1430 1431 1432 1433 1433 1431 1430 1431 1432 1434 1434 1434 1435 1435 1435 1435 1435 1436 1436 1436 1438 1440 1441 1441 1442 1443 1445 1447 1448 1447 1446 1446 1447 1447 1449 1452 1454 1454 1455 1454 1455 1462 1467 1467 1466 1467 1469 1466 1462 1466 1471 1466 1460 1458 1457 1461 1466 1468 1468 1466 1462 1459 1456 1456 1459 1458 1457 1455 1454 1459 1458 1437 1419 1424 1432 1432 1433 1436 1438 1438 1438 1438 1436 1435 1435 1435 1437 1439
1428 1430 1431 1433 1432 1430 1429 1429 1430 1431 1430 1430 1431 1431 1432 1433 1433 1435 1436 1435 1434 1435 1436 1436 1438 1441 1442 1443 1442 1441 1441 1442 1443 1444 1445 1447 1448 1448 1450 1452 1452 1456 1462 1465 1464 1464 1466 1466 1464 1466 1468 1463 1457 1455 1456 1462 1469 1469 1461 1449 1442 1443 1448 1453 1455 1448 1442 1444 1449 1452 1442 1422 1415 1426 1431 1429 1431 1433 1432 1432 1432 1430 1429 1429 1429 1430 1432 1434